Location: USNO
(38.9242°N, 77.0663°W)
Time: 14:12:25
(UTC-04:00)

Vanguard 2 - All Passes

Search period start: 18 July 2018 00:00
Search period end: 28 July 2018 00:00
Orbit: 553 x 2939 km, 32.9° (Epoch: 18 July)

Date Brightness Start Highest point End Pass type
(mag) Time Alt. Az. Time Alt. Az. Time Alt. Az.
18 Jul - 01:01:30 10° W 01:17:47 49° SSW 01:29:36 10° SE visible
18 Jul - 03:17:34 10° W 03:26:34 19° SW 03:33:41 10° S visible
18 Jul - 16:41:47 10° S 16:50:17 20° SE 17:00:41 10° E daylight
18 Jul - 18:46:12 10° SW 18:59:43 49° SSE 19:16:24 10° E daylight
18 Jul - 20:55:12 10° WSW 21:11:40 70° S 21:28:44 10° E visible
18 Jul - 23:06:43 10° W 23:24:26 67° SSW 23:39:11 10° ESE visible
19 Jul - 01:20:03 10° W 01:35:30 41° SW 01:46:55 10° SSE visible
19 Jul - 03:38:35 10° WSW 03:43:49 13° SW 03:48:24 10° SSW visible
19 Jul - 16:57:50 10° S 17:07:39 27° SE 17:20:18 10° E daylight
19 Jul - 19:03:44 10° SW 19:17:36 56° SSE 19:34:50 10° E daylight
19 Jul - 21:13:17 10° WSW 21:29:56 71° S 21:46:56 10° E visible
19 Jul - 23:25:01 10° W 23:42:33 62° SSW 23:57:01 10° ESE visible
20 Jul - 01:38:48 10° W 01:53:05 34° SW 02:03:56 10° SSE visible
20 Jul - 17:14:31 10° SSW 17:25:08 34° SE 17:39:21 10° E daylight
20 Jul - 19:21:27 10° WSW 19:35:37 62° SSE 19:53:12 10° E daylight
20 Jul - 21:31:26 10° W 21:48:12 71° S 22:05:04 10° ESE visible
20 Jul - 23:43:23 10° W 00:00:32 55° SSW 00:14:43 10° SE visible
21 Jul - 01:57:54 10° W 02:10:33 27° SW 02:20:34 10° S visible
21 Jul - 15:29:50 10° SSE 15:34:29 13° SE 15:39:51 10° ESE daylight
21 Jul - 17:31:35 10° SSW 17:42:43 42° SSE 17:58:04 10° E daylight
21 Jul - 19:39:18 10° WSW 19:53:44 67° SSE 20:11:30 10° E daylight
21 Jul - 21:49:37 10° W 22:06:27 69° S 22:23:10 10° ESE visible
22 Jul - 00:01:48 10° W 00:18:25 48° SSW 00:32:12 10° SE visible
22 Jul - 02:17:36 10° W 02:27:56 20° SW 02:36:31 10° S visible
22 Jul - 15:44:45 10° S 15:51:44 19° SE 16:00:41 10° E daylight
22 Jul - 17:48:57 10° SW 18:00:27 50° SSE 18:16:37 10° E daylight
22 Jul - 19:57:17 10° WSW 20:11:55 70° S 20:29:47 10° E daylight
22 Jul - 22:07:50 10° W 22:24:38 65° SSW 22:41:08 10° ESE visible
23 Jul - 00:20:22 10° W 00:36:11 41° SW 00:49:27 10° SSE visible
23 Jul - 02:38:43 10° WSW 02:45:14 14° SW 02:51:05 10° SSW visible
23 Jul - 16:00:58 10° S 16:09:04 26° SE 16:20:14 10° E daylight
23 Jul - 18:06:32 10° SW 18:18:18 57° SSE 18:35:04 10° E daylight
23 Jul - 20:15:20 10° W 20:30:10 71° S 20:48:02 10° E daylight
23 Jul - 22:26:06 10° W 22:42:46 60° SSW 22:58:58 10° SE visible
24 Jul - 00:39:08 10° W 00:53:50 33° SW 01:06:20 10° SSE visible
24 Jul - 16:17:45 10° SSW 16:26:31 33° SE 16:39:13 10° E daylight
24 Jul - 18:24:16 10° WSW 18:36:19 63° SSE 18:53:27 10° E daylight
24 Jul - 20:33:26 10° W 20:48:24 70° S 21:06:12 10° ESE visible
24 Jul - 22:44:25 10° W 23:00:48 54° SSW 23:16:36 10° SE visible
25 Jul - 00:58:18 10° W 01:11:22 26° SW 01:22:46 10° S visible
25 Jul - 14:33:47 10° SE 14:36:31 11° SE 14:39:33 10° ESE daylight
25 Jul - 16:34:54 10° SSW 16:44:05 41° SSE 16:57:56 10° E daylight
25 Jul - 18:42:09 10° WSW 18:54:24 67° S 19:11:49 10° E daylight
25 Jul - 20:51:35 10° W 21:06:39 67° S 21:24:19 10° ESE visible
25 Jul - 23:02:49 10° W 23:18:43 46° SSW 23:34:01 10° SE visible
26 Jul - 01:18:10 10° W 01:28:51 20° SW 01:38:27 10° S visible
26 Jul - 14:48:24 10° S 14:53:45 17° SE 15:00:41 10° E daylight
26 Jul - 16:52:21 10° SW 17:01:49 49° SSE 17:16:27 10° E daylight
26 Jul - 19:00:06 10° WSW 19:12:34 69° S 19:30:08 10° E daylight
26 Jul - 21:09:45 10° W 21:24:50 63° SSW 21:42:17 10° ESE visible
26 Jul - 23:21:23 10° W 23:36:32 39° SW 23:51:08 10° SSE visible
27 Jul - 01:39:38 10° WSW 01:46:17 13° SW 01:52:32 10° SSW visible
27 Jul - 15:04:39 10° S 15:11:06 24° SE 15:20:11 10° E daylight
27 Jul - 17:09:58 10° SW 17:19:41 56° SSE 17:34:54 10° E daylight
27 Jul - 19:18:07 10° W 19:30:46 70° S 19:48:25 10° ESE daylight
27 Jul - 21:27:58 10° W 21:42:57 57° SSW 22:00:04 10° SE visible
